This is the latest recevied weather packets stored in our database for station/object 9W8AKN-13. If no packets are shown the sender has not sent any weather packets the latest 10 day(s).
| Time | Temp. | Humidity | Pressure | Rain* | Wind** | Luminosity | Snow |
|---|---|---|---|---|---|---|---|
| 1788185250 | 29.44° C | 75% | 1011.6 hPa | - | - | - | - |
| 1788184350 | 30° C | 79% | 1011.6 hPa | - | - | - | - |
| 1788183449 | 30° C | 81% | 1011.5 hPa | - | - | - | - |
| 1788182549 | 30° C | 86% | 1011.3 hPa | - | - | - | - |
| 1788181649 | 30° C | 94% | 1011.3 hPa | - | - | - | - |
| 1788180749 | 30.56° C | 95% | 1011.1 hPa | - | - | - | - |
| 1788179849 | 30.56° C | 96% | 1010.9 hPa | - | - | - | - |
| 1788178949 | 30.56° C | 92% | 1010.7 hPa | - | - | - | - |
| 1788178049 | 30.56° C | 91% | 1010.6 hPa | - | - | - | - |
| 1788177149 | 30.56° C | 89% | 1010.4 hPa | - | - | - | - |
| 1788176249 | 30.56° C | 89% | 1010.2 hPa | - | - | - | - |
| 1788175349 | 31.11° C | 87% | 1010.2 hPa | - | - | - | - |
| 1788174449 | 31.11° C | 87% | 1009.7 hPa | - | - | - | - |
| 1788173548 | 31.11° C | 85% | 1009.5 hPa | - | - | - | - |
| 1788172648 | 31.11° C | 85% | 1009.7 hPa | - | - | - | - |
| 1788171748 | 31.11° C | 83% | 1009.6 hPa | - | - | - | - |
| 1788170848 | 31.11° C | 81% | 1009.6 hPa | - | - | - | - |
| 1788169948 | 31.67° C | 79% | 1009.4 hPa | - | - | - | - |
| 1788169048 | 31.67° C | 79% | 1009.3 hPa | - | - | - | - |
| 1788168148 | 31.67° C | 79% | 1009.3 hPa | - | - | - | - |
| 1788166350 | 31.67° C | 77% | 1009.2 hPa | - | - | - | - |
| 1788165450 | 31.67° C | 77% | 1009.1 hPa | - | - | - | - |
| 1788164550 | 31.67° C | 77% | 1009.1 hPa | - | - | - | - |
| 1788163650 | 31.67° C | 77% | 1009.2 hPa | - | - | - | - |
| 1788162749 | 31.67° C | 77% | 1009.1 hPa | - | - | - | - |
* Rain since midnight (hover to see other rain measurements)
** Current wind speed in m/s (hover to see current wind gust speed)